NEW_YORK/LA_GUARDIA current weather conditions

sailwx.info

Wind from 330 at 12 knots

Air temperature -5.0° C
Visibility: greater than 8.7 NM
Dewpoint -16.0° C

Last reported at 2020-Jan-21 05:05 UTC.
Time now 2020-Jan-21 06:30 UTC

Location: N 40°46' W 073°54'.
View on Google Maps.

See reports from other nearby stations

  
Tides and Currents Weather Stations Pressure Air Temp Water Temp Dewpoint Dewpoint Depression Visibility Wind Speed Wind Dir Waves Ship Positions
date/time (UTC)wind fromknots sea level pressurealtimeterstation pressurevisibilityair tempwater tempwave heightnotes
2020-Jan-21 06:10 330 11 8.7-6.0
2020-Jan-21 06:05 340 11 8.7-6.0
2020-Jan-21 06:00 330 12 8.7-6.0
2020-Jan-21 05:55 330 12 8.7-6.0
2020-Jan-21 05:51 330 13 8.7-5.6
2020-Jan-21 05:50 320 13 8.7-6.0
2020-Jan-21 05:45 330 13 8.7-6.0
2020-Jan-21 05:40 330 14 8.7-6.0
2020-Jan-21 05:35 330 14 8.7-6.0
2020-Jan-21 05:30 340 12 8.7-6.0
2020-Jan-21 05:25 310 12 8.7-6.0
2020-Jan-21 05:20 330 13 8.7-6.0
2020-Jan-21 05:15 320 13 8.7-5.0
2020-Jan-21 05:10 320 12 8.7-5.0
2020-Jan-21 05:05 330 12 8.7-5.0
2020-Jan-21 05:00 320 12 8.7-5.0
2020-Jan-21 04:55 320 14 8.7-5.0
2020-Jan-21 04:51 330 13 8.7-5.0
2020-Jan-21 04:50 330 13 8.7-5.0
2020-Jan-21 04:45 330 13 8.7-5.0
2020-Jan-21 04:40 320 13 8.7-5.0
2020-Jan-21 04:35 320 11 8.7-5.0
2020-Jan-21 04:30 330 14 8.7-5.0
2020-Jan-21 04:25 330 15 8.7-5.0
2020-Jan-21 04:20 330 16 8.7-5.0
2020-Jan-21 04:15 330 11 8.7-4.0
2020-Jan-21 04:10 330 13 8.7-4.0
2020-Jan-21 04:05 320 13 8.7-4.0
2020-Jan-21 04:00 320 15 8.7-4.0
2020-Jan-21 03:55 320 14 8.7-4.0
2020-Jan-21 03:51 310 13 8.7-4.4
2020-Jan-21 03:50 310 13 8.7-4.0
2020-Jan-21 03:45 330 10 8.7-4.0
2020-Jan-21 03:40 330 11 8.7-4.0
2020-Jan-21 03:35 330 13 8.7-4.0
2020-Jan-21 03:30 330 13 8.7-4.0
2020-Jan-21 03:25 330 13 8.7-4.0
2020-Jan-21 03:20 340 13 8.7-4.0
2020-Jan-21 03:15 320 15 8.7-4.0
2020-Jan-21 03:10 330 16 8.7-4.0
2020-Jan-21 03:05 330 15 8.7-4.0
2020-Jan-21 03:00 330 13 8.7-4.0
2020-Jan-21 02:55 330 14 8.7-4.0
2020-Jan-21 02:51 340 14 8.7-3.9
2020-Jan-21 02:50 340 16 8.7-4.0
2020-Jan-21 02:45 320 16 8.7-4.0
2020-Jan-21 02:40 330 11 8.7-4.0
2020-Jan-21 02:35 330 10 8.7-4.0
2020-Jan-21 02:30 330 15 8.7-4.0
2020-Jan-21 02:25 330 11 8.7-3.0
2020-Jan-21 02:20 330 11 8.7-3.0
2020-Jan-21 02:15 330 14 8.7-3.0
2020-Jan-21 02:10 350 13 gusting 18 8.7-3.0
2020-Jan-21 02:05 320 16 8.7-3.0
2020-Jan-21 02:00 330 14 8.7-3.0
2020-Jan-21 01:55 330 14 8.7-3.0
2020-Jan-21 01:51 330 15 8.7-3.3
2020-Jan-21 01:50 330 17 8.7-3.0
2020-Jan-21 01:45 330 17 gusting 22 8.7-3.0
2020-Jan-21 01:40 340 16 8.7-3.0
2020-Jan-21 01:35 330 18 8.7-3.0
2020-Jan-21 01:30 330 14 8.7-3.0
2020-Jan-21 01:25 320 12 8.7-3.0
2020-Jan-21 01:20 330 15 8.7-3.0
2020-Jan-21 01:15 330 16 8.7-3.0
2020-Jan-21 01:10 320 18 8.7-3.0
2020-Jan-21 01:05 330 16 gusting 20 8.7-3.0
2020-Jan-21 01:00 320 16 gusting 20 8.7-2.0
2020-Jan-21 00:55 330 17 8.7-2.0
2020-Jan-21 00:51 330 15 gusting 20 8.7-2.2
2020-Jan-21 00:50 340 14 8.7-2.0
2020-Jan-21 00:45 340 13 8.7-2.0
2020-Jan-21 00:40 330 17 8.7-2.0
2020-Jan-21 00:35 340 12 8.7-2.0
2020-Jan-21 00:30 330 12 8.7-2.0
2020-Jan-21 00:25 320 13 8.7-2.0
2020-Jan-21 00:20 340 13 8.7-2.0
2020-Jan-21 00:15 340 14 8.7-2.0
2020-Jan-21 00:10 330 15 8.7-2.0
2020-Jan-21 00:05 330 12 8.7-2.0
2020-Jan-21 00:00 320 11 8.7-2.0
2020-Jan-20 23:55 320 10 8.7-2.0
2020-Jan-20 23:51 310 11 8.7-1.7
2020-Jan-20 23:50 310 10 8.7-2.0
2020-Jan-20 23:45 320 10 8.7-2.0
2020-Jan-20 23:40 320 9 8.7-2.0
2020-Jan-20 23:35 320 12 8.7-2.0
2020-Jan-20 23:30 310 13 8.7-2.0
2020-Jan-20 23:25 320 10 8.7-2.0
2020-Jan-20 23:20 330 13 8.7-2.0
2020-Jan-20 23:15 330 11 8.7-2.0
2020-Jan-20 23:10 320 11 8.7-1.0
2020-Jan-20 23:05 330 14 8.7-1.0
2020-Jan-20 23:00 330 12 8.7-1.0
2020-Jan-20 22:55 320 13 8.7-1.0
2020-Jan-20 22:51 340 13 8.7-1.1
2020-Jan-20 22:50 340 12 8.7-1.0
2020-Jan-20 22:45 330 12 8.7-1.0
2020-Jan-20 22:40 340 13 8.7-1.0
2020-Jan-20 22:35 320 15 8.7-1.0
2020-Jan-20 22:30 320 14 8.7-1.0
2020-Jan-20 22:25 320 14 8.7-1.0
2020-Jan-20 22:20 320 11 8.7-1.0
2020-Jan-20 22:15 330 12 8.7-1.0
2020-Jan-20 22:10 320 14 8.7-1.0
2020-Jan-20 22:05 320 12 gusting 17 8.7-1.0
2020-Jan-20 22:00 320 14 8.7-1.0
2020-Jan-20 21:55 320 13 8.7-1.0
2020-Jan-20 21:51 330 11 8.7-1.1
2020-Jan-20 21:50 330 11 8.7-1.0
2020-Jan-20 21:45 330 13 8.7-1.0
2020-Jan-20 21:40 310 14 8.7-1.0
2020-Jan-20 21:35 320 15 8.7-1.0
2020-Jan-20 21:30 320 15 8.7-1.0
2020-Jan-20 21:25 320 15 8.7-1.0
2020-Jan-20 21:20 310 14 8.7-1.0
2020-Jan-20 21:15 320 12 8.7-1.0
2020-Jan-20 21:10 330 12 8.7-1.0
2020-Jan-20 21:05 330 13 8.7-1.0
2020-Jan-20 21:00 310 14 8.7-1.0
2020-Jan-20 20:55 310 15 8.7-1.0
2020-Jan-20 20:51 310 15 8.7-0.6
2020-Jan-20 20:50 320 15 8.7-1.0
2020-Jan-20 20:45 300 14 8.7-1.0
2020-Jan-20 20:40 320 14 8.7-0.0
2020-Jan-20 20:35 310 14 8.7-1.0
2020-Jan-20 20:30 310 14 8.7-1.0
2020-Jan-20 20:25 330 12 8.7-1.0
2020-Jan-20 20:20 340 12 8.7-1.0
2020-Jan-20 20:15 340 12 8.7-0.0
2020-Jan-20 20:10 330 10 8.7-1.0
2020-Jan-20 20:05 350 12 8.7-0.0
2020-Jan-20 20:00 310 13 8.7-1.0
2020-Jan-20 19:55 340 14 8.7-1.0
2020-Jan-20 19:51 330 14 gusting 19 8.7-0.6
2020-Jan-20 19:50 340 14 8.7-1.0
2020-Jan-20 19:45 330 14 gusting 19 8.7-1.0
2020-Jan-20 19:40 360 13 8.7-1.0
2020-Jan-20 19:35 340 15 8.7-1.0
2020-Jan-20 19:30 320 10 8.7-1.0
2020-Jan-20 19:25 330 14 8.7-1.0
2020-Jan-20 19:20 320 18 8.7-1.0
2020-Jan-20 19:15 310 16 8.7-1.0
2020-Jan-20 19:10 310 13 8.7-1.0
2020-Jan-20 19:05 330 13 8.7-1.0
2020-Jan-20 19:00 350 12 8.7-1.0
2020-Jan-20 18:55 330 16 8.7-1.0
2020-Jan-20 18:51 300 13 8.7-1.1
2020-Jan-20 18:50 310 15 8.7-1.0
2020-Jan-20 18:45 340 12 8.7-1.0
2020-Jan-20 18:40 330 14 8.7-1.0
2020-Jan-20 18:35 320 17 8.7-1.0
2020-Jan-20 18:30 330 15 gusting 20 8.7-1.0
2020-Jan-20 18:25 340 12 8.7-1.0
2020-Jan-20 18:20 330 14 8.7-2.0
2020-Jan-20 18:15 320 15 8.7-2.0
2020-Jan-20 18:10 330 13 8.7-2.0
2020-Jan-20 18:05 330 14 8.7-1.0
2020-Jan-20 18:00 330 12 8.7-1.0
2020-Jan-20 17:55 340 12 8.7-2.0
2020-Jan-20 17:51 340 12 8.7-1.7
2020-Jan-20 17:50 340 13 8.7-2.0
2020-Jan-20 17:45 360 16 8.7-2.0
2020-Jan-20 17:40 330 16 gusting 20 8.7-2.0
2020-Jan-20 17:35 340 14 8.7-2.0
2020-Jan-20 17:30 340 17 8.7-2.0
2020-Jan-20 17:25 330 14 8.7-2.0
2020-Jan-20 17:20 330 15 gusting 20 8.7-2.0
2020-Jan-20 17:15 320 16 8.7-2.0
2020-Jan-20 17:10 340 16 8.7-2.0
2020-Jan-20 17:05 330 16 8.7-2.0
2020-Jan-20 17:00 330 15 gusting 20 8.7-2.0
2020-Jan-20 16:55 330 17 gusting 22 8.7-3.0
2020-Jan-20 16:51 340 13 gusting 19 8.7-2.2
2020-Jan-20 16:50 350 13 8.7-2.0
2020-Jan-20 16:45 340 12 8.7-3.0
2020-Jan-20 16:40 330 12 8.7-3.0
2020-Jan-20 16:35 320 14 8.7-3.0
2020-Jan-20 16:30 330 13 8.7-3.0
2020-Jan-20 16:25 320 15 gusting 20 8.7-3.0
2020-Jan-20 16:20 310 17 8.7-3.0
2020-Jan-20 16:15 330 12 8.7-3.0
2020-Jan-20 16:10 350 11 8.7-3.0
2020-Jan-20 16:05 310 14 8.7-3.0
2020-Jan-20 16:00 330 13 8.7-4.0
2020-Jan-20 15:55 330 14 8.7-4.0
2020-Jan-20 15:51 330 13 gusting 21 8.7-3.9
2020-Jan-20 15:50 330 15 8.7-4.0
2020-Jan-20 15:45 320 14 8.7-4.0
2020-Jan-20 15:40 320 14 8.7-4.0
2020-Jan-20 15:35 320 16 8.7-4.0
2020-Jan-20 15:30 320 14 8.7-4.0
2020-Jan-20 15:25 320 15 8.7-4.0
2020-Jan-20 15:20 310 14 8.7-4.0
2020-Jan-20 15:15 330 11 8.7-4.0
2020-Jan-20 15:10 320 13 8.7-4.0
2020-Jan-20 15:05 340 12 8.7-4.0
2020-Jan-20 15:00 320 15 8.7-5.0
2020-Jan-20 14:55 320 14 8.7-4.0
2020-Jan-20 14:51 330 13 8.7-5.0
2020-Jan-20 14:50 340 12 8.7-5.0
2020-Jan-20 14:45 330 14 8.7-5.0
2020-Jan-20 14:40 330 15 8.7-5.0
2020-Jan-20 14:35 340 13 8.7-5.0
2020-Jan-20 14:30 330 14 8.7-5.0
2020-Jan-20 14:25 350 13 gusting 18 8.7-5.0
2020-Jan-20 14:20 320 14 8.7-6.0
2020-Jan-20 14:15 320 12 gusting 18 8.7-6.0
2020-Jan-20 14:10 330 13 8.7-6.0
2020-Jan-20 14:05 330 11 8.7-6.0
2020-Jan-20 14:00 340 11 8.7-6.0
2020-Jan-20 13:55 330 15 8.7-6.0
2020-Jan-20 13:51 320 17 gusting 21 8.7-5.6
2020-Jan-20 13:50 320 18 8.7-6.0
2020-Jan-20 13:45 320 16 8.7-6.0
2020-Jan-20 13:40 340 13 8.7-6.0
2020-Jan-20 13:35 330 16 8.7-6.0
2020-Jan-20 13:30 320 15 8.7-6.0
2020-Jan-20 13:25 330 16 8.7-6.0
2020-Jan-20 13:20 330 14 8.7-6.0
2020-Jan-20 13:15 340 14 8.7-6.0
2020-Jan-20 13:10 330 14 gusting 20 8.7-6.0
2020-Jan-20 13:05 330 14 gusting 19 8.7-6.0
2020-Jan-20 13:00 330 15 8.7-6.0
2020-Jan-20 12:55 350 11 8.7-6.0
2020-Jan-20 12:51 340 14 gusting 21 8.7-6.1
2020-Jan-20 12:50 340 16 gusting 22 8.7-6.0
2020-Jan-20 12:45 340 12 gusting 17 8.7-6.0
2020-Jan-20 12:40 330 12 8.7-6.0
2020-Jan-20 12:35 330 14 8.7-6.0
2020-Jan-20 12:30 330 17 8.7-6.0
2020-Jan-20 12:25 340 13 8.7-6.0
2020-Jan-20 12:20 340 12 8.7-6.0
2020-Jan-20 12:15 350 17 8.7-6.0
2020-Jan-20 12:10 330 15 8.7-6.0
2020-Jan-20 12:05 340 15 8.7-6.0
2020-Jan-20 12:00 340 13 gusting 18 8.7-6.0
2020-Jan-20 11:55 340 16 gusting 22 8.7-6.0
2020-Jan-20 11:51 330 17 gusting 22 8.7-6.1
2020-Jan-20 11:50 330 17 8.7-6.0
2020-Jan-20 11:45 330 15 8.7-6.0
2020-Jan-20 11:40 330 15 8.7-6.0
2020-Jan-20 11:35 320 18 8.7-6.0
2020-Jan-20 11:30 330 18 8.7-6.0
2020-Jan-20 11:25 330 15 gusting 20 8.7-6.0
2020-Jan-20 11:20 340 13 8.7-6.0
2020-Jan-20 11:15 330 15 8.7-6.0
2020-Jan-20 11:10 330 16 8.7-6.0
2020-Jan-20 11:05 330 17 8.7-6.0
2020-Jan-20 11:00 340 13 8.7-6.0
2020-Jan-20 10:55 350 14 8.7-6.0
2020-Jan-20 10:51 340 11 gusting 20 8.7-6.1
2020-Jan-20 10:50 340 12 8.7-6.0
2020-Jan-20 10:45 320 16 8.7-6.0
2020-Jan-20 10:40 340 14 8.7-6.0
2020-Jan-20 10:35 340 16 gusting 23 8.7-6.0
2020-Jan-20 10:30 340 17 8.7-6.0
2020-Jan-20 10:25 330 15 8.7-6.0
2020-Jan-20 10:20 320 18 gusting 23 8.7-6.0
2020-Jan-20 10:15 320 17 8.7-6.0
2020-Jan-20 10:10 330 16 8.7-6.0
2020-Jan-20 10:05 330 16 8.7-6.0
2020-Jan-20 10:00 330 16 8.7-6.0
2020-Jan-20 09:55 330 19 8.7-6.0
2020-Jan-20 09:51 330 18 8.7-5.6
2020-Jan-20 09:50 330 17 8.7-6.0
2020-Jan-20 09:45 330 17 8.7-6.0
2020-Jan-20 09:40 330 18 8.7-6.0
2020-Jan-20 09:35 320 17 8.7-6.0
2020-Jan-20 09:30 330 14 8.7-6.0
2020-Jan-20 09:25 320 16 8.7-6.0
2020-Jan-20 09:20 330 19 8.7-6.0
2020-Jan-20 09:15 330 19 8.7-6.0
2020-Jan-20 09:10 330 17 8.7-6.0
2020-Jan-20 09:05 320 16 8.7-6.0
2020-Jan-20 09:00 330 18 8.7-6.0
2020-Jan-20 08:55 330 18 8.7-6.0
2020-Jan-20 08:51 330 14 gusting 27 8.7-5.6
2020-Jan-20 08:50 340 16 8.7-6.0
2020-Jan-20 08:45 330 17 gusting 23 8.7-6.0
2020-Jan-20 08:40 330 20 8.7-5.0
2020-Jan-20 08:35 330 16 8.7-6.0
2020-Jan-20 08:30 320 20 8.7-5.0
2020-Jan-20 08:25 330 19 8.7-5.0
2020-Jan-20 08:20 330 17 8.7-5.0
2020-Jan-20 08:15 330 18 8.7-5.0
2020-Jan-20 08:10 320 20 8.7-4.0
2020-Jan-20 08:05 320 17 8.7-4.0
2020-Jan-20 08:00 310 19 8.7-4.0
2020-Jan-20 07:55 320 20 8.7-4.0
2020-Jan-20 07:51 320 21 gusting 27 8.7-4.4
2020-Jan-20 07:50 320 20 8.7-4.0
2020-Jan-20 07:45 330 20 8.7-4.0
2020-Jan-20 07:40 330 18 8.7-4.0
2020-Jan-20 07:35 330 17 8.7-4.0
2020-Jan-20 07:30 330 15 8.7-4.0
2020-Jan-20 07:25 330 16 8.7-4.0
2020-Jan-20 07:20 330 17 8.7-4.0
2020-Jan-20 07:15 330 19 gusting 25 8.7-4.0
2020-Jan-20 07:10 320 18 gusting 25 8.7-3.0
2020-Jan-20 07:05 320 16 8.7-4.0
2020-Jan-20 07:00 310 18 8.7-4.0
2020-Jan-20 06:55 310 17 gusting 22 8.7-3.0
2020-Jan-20 06:51 310 20 8.7-3.3
2020-Jan-20 06:50 310 20 8.7-3.0
2020-Jan-20 06:45 330 18 gusting 23 8.7-3.0
2020-Jan-20 06:40 310 20 gusting 26 8.7-3.0
2020-Jan-20 06:35 320 17 8.7-3.0
2020-Jan-20 06:30 300 18 8.7-3.0
2020-Jan-20 06:25 330 19 8.7-3.0
2020-Jan-20 06:20 320 17 8.7-3.0
2020-Jan-20 06:15 310 23 8.7-3.0
2020-Jan-20 06:10 310 20 gusting 26 8.7-3.0
2020-Jan-20 06:05 320 19 8.7-3.0
2020-Jan-20 06:00 310 18 8.7-3.0
2020-Jan-20 05:55 320 19 8.7-3.0
2020-Jan-20 05:51 310 20 8.7-2.8
2020-Jan-20 05:50 310 20 8.7-3.0
2020-Jan-20 05:45 300 20 8.7-3.0
2020-Jan-20 05:40 300 17 8.7-3.0
2020-Jan-20 05:35 310 19 8.7-3.0
2020-Jan-20 05:30 300 20 8.7-3.0
2020-Jan-20 05:25 300 22 8.7-3.0
2020-Jan-20 05:20 310 20 8.7-2.0
2020-Jan-20 05:15 310 20 gusting 25 8.7-2.0
2020-Jan-20 05:10 320 24 8.7-2.0
2020-Jan-20 05:05 320 25 gusting 31 8.7-2.0
2020-Jan-20 05:00 320 27 gusting 32 8.7-2.0
2020-Jan-20 04:55 330 24 8.7-2.0
2020-Jan-20 04:51 320 26 gusting 34 8.7-2.2
2020-Jan-20 04:50 320 25 gusting 35 8.7-2.0
2020-Jan-20 04:45 330 20 8.7-2.0
2020-Jan-20 04:40 320 24 8.7-2.0
2020-Jan-20 04:35 330 18 8.7-1.0
2020-Jan-20 04:30 300 17 8.7-1.0
2020-Jan-20 04:25 300 16 8.7-1.0
2020-Jan-20 04:20 310 20 8.7-1.0
2020-Jan-20 04:15 310 24 8.7-1.0
2020-Jan-20 04:10 320 24 gusting 32 8.7-1.0
2020-Jan-20 04:05 310 22 8.7-1.0
2020-Jan-20 04:00 320 23 8.7-1.0
2020-Jan-20 03:55 320 27 gusting 34 8.7-1.0
2020-Jan-20 03:51 310 26 gusting 28 8.7-0.0
2020-Jan-20 03:50 310 23 gusting 27 8.7-0.0
2020-Jan-20 03:45 300 19 gusting 27 8.7-0.0
2020-Jan-20 03:40 320 15 gusting 20 8.7-0.0
2020-Jan-20 03:35 320 19 gusting 24 8.7-0.0
2020-Jan-20 03:30 310 19 8.7-0.0
2020-Jan-20 03:25 310 15 8.7-0.0
2020-Jan-20 03:20 310 15 8.7-0.0
2020-Jan-20 03:15 300 18 8.7-0.0
2020-Jan-20 03:10 300 15 8.7-0.0
2020-Jan-20 03:05 300 13 8.7-0.0
2020-Jan-20 03:00 320 14 8.7-0.0
2020-Jan-20 02:55 280 15 8.7-0.0
2020-Jan-20 02:51 290 13 8.7-0.0
2020-Jan-20 02:50 290 13 8.7-0.0
2020-Jan-20 02:45 290 14 8.7 1.0
2020-Jan-20 02:40 290 12 8.7 1.0
2020-Jan-20 02:35 300 12 8.7 1.0
2020-Jan-20 02:30 300 14 8.7 1.0
2020-Jan-20 02:25 300 17 8.7 1.0
2020-Jan-20 02:20 310 17 8.7 1.0
2020-Jan-20 02:15 290 20 8.7 1.0
2020-Jan-20 02:10 290 15 gusting 20 8.7 1.0
2020-Jan-20 02:05 280 15 8.7 1.0
2020-Jan-20 02:00 280 18 8.7 1.0
2020-Jan-20 01:55 280 13 8.7 1.0
2020-Jan-20 01:51 280 14 gusting 22 8.7 0.6
2020-Jan-20 01:50 280 16 8.7 1.0
2020-Jan-20 01:45 280 14 gusting 20 8.7 1.0
2020-Jan-20 01:40 290 12 8.7 1.0
2020-Jan-20 01:35 290 10 8.7 1.0
2020-Jan-20 01:30 300 16 8.7 1.0
2020-Jan-20 01:25 300 16 8.7 1.0
2020-Jan-20 01:20 310 17 8.7 1.0
2020-Jan-20 01:15 290 13 8.7 1.0
2020-Jan-20 01:10 290 12 8.7 1.0
2020-Jan-20 01:05 290 15 8.7 1.0
2020-Jan-20 01:00 300 17 8.7 1.0
2020-Jan-20 00:55 290 15 8.7 1.0
2020-Jan-20 00:51 290 17 gusting 22 8.7 1.1
2020-Jan-20 00:50 290 17 8.7 1.0
2020-Jan-20 00:45 290 16 gusting 20 8.7 1.0
2020-Jan-20 00:40 280 13 gusting 18 8.7 1.0
2020-Jan-20 00:35 290 16 8.7 1.0
2020-Jan-20 00:30 290 20 8.7 1.0
2020-Jan-20 00:25 290 18 8.7 2.0
2020-Jan-20 00:20 290 15 8.7 2.0
2020-Jan-20 00:15 290 16 gusting 20 8.7 2.0
2020-Jan-20 00:10 290 18 8.7 2.0
2020-Jan-20 00:05 280 17 8.7 2.0
2020-Jan-20 00:00 280 16 8.7 2.0
2020-Jan-19 23:55 300 15 8.7 2.0
2020-Jan-19 23:51 290 17 gusting 24 8.7 1.7
2020-Jan-19 23:50 300 17 8.7 2.0
2020-Jan-19 23:45 280 19 8.7 2.0
2020-Jan-19 23:40 290 12 8.7 2.0
2020-Jan-19 23:35 300 17 8.7 2.0
2020-Jan-19 23:30 290 15 8.7 2.0
2020-Jan-19 23:25 310 20 8.7 2.0
2020-Jan-19 23:20 300 20 8.7 2.0
2020-Jan-19 23:15 300 17 8.7 2.0
2020-Jan-19 23:10 300 18 8.7 3.0
2020-Jan-19 23:05 310 15 8.7 3.0
2020-Jan-19 23:00 310 16 8.7 3.0
2020-Jan-19 22:55 310 17 8.7 3.0
2020-Jan-19 22:51 310 18 gusting 24 8.7 2.8
2020-Jan-19 22:50 310 18 gusting 23 8.7 3.0
2020-Jan-19 22:45 310 19 8.7 3.0
2020-Jan-19 22:40 330 14 8.7 3.0
2020-Jan-19 22:35 330 14 8.7 3.0
2020-Jan-19 22:30 320 16 8.7 3.0
2020-Jan-19 22:25 310 20 8.7 3.0
2020-Jan-19 22:20 320 18 gusting 23 8.7 3.0
2020-Jan-19 22:15 320 20 8.7 3.0
2020-Jan-19 22:10 320 19 gusting 24 8.7 3.0
2020-Jan-19 22:05 310 20 8.7 3.0
2020-Jan-19 22:00 320 20 8.7 3.0
2020-Jan-19 21:55 320 19 8.7 3.0
2020-Jan-19 21:51 330 13 gusting 25 8.7 3.3
2020-Jan-19 21:50 330 13 8.7 3.0
2020-Jan-19 21:45 300 19 gusting 24 8.7 4.0
2020-Jan-19 21:40 320 20 8.7 4.0
2020-Jan-19 21:35 320 14 8.7 4.0
2020-Jan-19 21:30 320 13 8.7 4.0
2020-Jan-19 21:25 320 12 8.7 4.0
2020-Jan-19 21:20 330 12 8.7 4.0
2020-Jan-19 21:15 320 17 8.7 4.0
2020-Jan-19 21:10 330 16 8.7 4.0
2020-Jan-19 21:05 320 13 8.7 4.0
2020-Jan-19 21:00 320 14 8.7 4.0
2020-Jan-19 20:55 310 13 8.7 4.0
2020-Jan-19 20:51 310 15 8.7 4.4
2020-Jan-19 20:50 310 15 8.7 4.0
2020-Jan-19 20:45 310 19 8.7 4.0
2020-Jan-19 20:40 300 18 8.7 5.0
2020-Jan-19 20:35 320 14 8.7 5.0
2020-Jan-19 20:30 320 11 8.7 6.0
2020-Jan-19 20:25 300 13 8.7 5.0
2020-Jan-19 20:20 310 15 8.7 5.0
2020-Jan-19 20:15 310 18 8.7 5.0
2020-Jan-19 20:10 300 17 gusting 22 8.7 5.0
2020-Jan-19 20:05 320 16 8.7 6.0
2020-Jan-19 20:00 300 16 8.7 6.0
2020-Jan-19 19:55 310 15 8.7 6.0
2020-Jan-19 19:51 310 11 gusting 19 8.7 5.6
2020-Jan-19 19:50 300 12 8.7 6.0
2020-Jan-19 19:45 300 13 8.7 6.0
2020-Jan-19 19:40 290 13 8.7 6.0
2020-Jan-19 19:35 300 13 8.7 6.0
2020-Jan-19 19:30 310 15 8.7 6.0
2020-Jan-19 19:25 310 16 8.7 6.0
2020-Jan-19 19:20 300 14 8.7 6.0
2020-Jan-19 19:15 280 14 8.7 6.0
2020-Jan-19 19:10 290 14 8.7 6.0
2020-Jan-19 19:05 300 17 gusting 24 8.7 6.0
2020-Jan-19 19:00 290 17 gusting 24 8.7 6.0
2020-Jan-19 18:55 290 14 8.7 6.0
2020-Jan-19 18:51 300 13 gusting 22 8.7 6.1
2020-Jan-19 18:50 310 14 8.7 6.0
2020-Jan-19 18:45 300 15 gusting 20 8.7 6.0
2020-Jan-19 18:40 300 15 8.7 6.0
2020-Jan-19 18:35 290 14 8.7 6.0
2020-Jan-19 18:30 280 12 8.7 6.0
2020-Jan-19 18:25 280 13 gusting 19 8.7 6.0
2020-Jan-19 18:20 290 15 8.7 6.0
2020-Jan-19 18:15 280 16 8.7 6.0
2020-Jan-19 18:10 270 15 gusting 20 8.7 6.0
2020-Jan-19 18:05 290 14 8.7 6.0
2020-Jan-19 18:00 300 17 8.7 6.0
2020-Jan-19 17:55 290 12 8.7 6.0
2020-Jan-19 17:51 300 12 8.7 5.6
2020-Jan-19 17:50 300 12 8.7 6.0
2020-Jan-19 17:45 290 9 8.7 6.0
2020-Jan-19 17:40 300 10 8.7 6.0
2020-Jan-19 17:35 290 13 8.7 6.0
2020-Jan-19 17:30 310 18 8.7 6.0
2020-Jan-19 17:25 300 17 8.7 6.0
2020-Jan-19 17:20 300 17 8.7 6.0
2020-Jan-19 17:15 280 17 gusting 22 8.7 6.0
2020-Jan-19 17:10 290 13 8.7 6.0
2020-Jan-19 17:05 280 17 8.7 6.0
2020-Jan-19 17:00 280 16 gusting 20 8.7 6.0
2020-Jan-19 16:55 280 15 8.7 6.0
2020-Jan-19 16:51 280 17 gusting 24 8.7 5.6
2020-Jan-19 16:50 280 15 8.7 6.0
2020-Jan-19 16:45 290 14 8.7 6.0
2020-Jan-19 16:40 290 15 gusting 20 8.7 6.0
2020-Jan-19 16:35 280 15 8.7 6.0
2020-Jan-19 16:30 280 16 8.7 6.0
2020-Jan-19 16:25 310 18 8.7 6.0
2020-Jan-19 16:20 290 15 8.7 6.0
2020-Jan-19 16:15 290 13 8.7 6.0
2020-Jan-19 16:10 280 12 8.7 6.0
2020-Jan-19 16:05 280 16 8.7 6.0
2020-Jan-19 16:00 290 18 8.7 6.0
2020-Jan-19 15:55 290 14 8.7 6.0
2020-Jan-19 15:51 290 15 gusting 22 8.7 5.6
2020-Jan-19 15:50 290 15 8.7 6.0
2020-Jan-19 15:45 280 14 gusting 20 8.7 6.0
2020-Jan-19 15:40 300 13 8.7 6.0
2020-Jan-19 15:35 290 18 8.7 6.0
2020-Jan-19 15:30 290 18 8.7 6.0
2020-Jan-19 15:25 270 16 gusting 22 8.7 6.0
2020-Jan-19 15:20 280 17 8.7 6.0
2020-Jan-19 15:15 280 17 gusting 23 8.7 6.0
2020-Jan-19 15:10 280 14 8.7 6.0
2020-Jan-19 15:05 290 12 8.7 6.0
2020-Jan-19 15:00 290 18 gusting 23 8.7 6.0
2020-Jan-19 14:55 290 14 8.7 6.0
2020-Jan-19 14:51 290 14 gusting 26 8.7 6.1
2020-Jan-19 14:50 290 16 gusting 23 8.7 6.0
2020-Jan-19 14:45 270 16 8.7 6.0
2020-Jan-19 14:40 280 14 8.7 6.0
2020-Jan-19 14:35 280 12 8.7 6.0
2020-Jan-19 14:30 290 10 gusting 15 8.7 6.0
2020-Jan-19 14:25 280 11 8.7 6.0
2020-Jan-19 14:20 280 14 8.7 6.0
2020-Jan-19 14:15 290 10 8.7 6.0
2020-Jan-19 14:10 290 10 8.7 6.0
2020-Jan-19 14:05 290 11 8.7 6.0
2020-Jan-19 14:00 290 11 8.7 6.0
2020-Jan-19 13:55 290 10 8.7 5.0
2020-Jan-19 13:51 300 11 8.7 5.0
2020-Jan-19 13:50 300 11 8.7 5.0
2020-Jan-19 13:45 300 13 8.7 5.0
2020-Jan-19 13:40 300 10 8.7 5.0
2020-Jan-19 13:35 300 14 8.7 5.0
2020-Jan-19 13:30 310 20 8.7 4.0
2020-Jan-19 13:25 310 20 8.7 5.0
2020-Jan-19 13:20 310 19 8.7 5.0
2020-Jan-19 13:15 300 18 8.7 5.0
2020-Jan-19 13:10 300 13 8.7 4.0
2020-Jan-19 13:05 290 16 8.7 4.0
2020-Jan-19 13:00 290 14 8.7 4.0
2020-Jan-19 12:55 290 13 8.7 4.0
2020-Jan-19 12:51 290 13 gusting 20 8.7 3.9
2020-Jan-19 12:50 290 14 8.7 4.0
2020-Jan-19 12:45 280 13 8.7 4.0
2020-Jan-19 12:40 290 14 8.7 4.0
2020-Jan-19 12:35 280 15 8.7 4.0
2020-Jan-19 12:30 290 12 8.7 4.0
2020-Jan-19 12:25 280 14 gusting 20 8.7 4.0
2020-Jan-19 12:20 280 11 8.7 4.0
2020-Jan-19 12:15 290 13 8.7 4.0
2020-Jan-19 12:10 290 14 gusting 23 8.7 4.0
2020-Jan-19 12:05 280 15 8.7 4.0
2020-Jan-19 12:00 290 16 8.7 4.0
2020-Jan-19 11:55 290 15 8.7 4.0
2020-Jan-19 11:51 280 13 gusting 20 8.7 3.9
2020-Jan-19 11:50 280 12 8.7 4.0
2020-Jan-19 11:45 280 13 8.7 4.0
2020-Jan-19 11:40 280 11 8.7 4.0
2020-Jan-19 11:35 270 12 gusting 18 8.7 4.0
2020-Jan-19 11:30 270 14 8.7 4.0
2020-Jan-19 11:25 280 12 8.7 4.0
2020-Jan-19 11:20 270 10 gusting 16 8.7 4.0
2020-Jan-19 11:15 280 12 8.7 4.0
2020-Jan-19 11:10 280 10 8.7 4.0
2020-Jan-19 11:05 270 9 8.7 4.0
2020-Jan-19 11:00 260 10 8.7 4.0
2020-Jan-19 10:55 260 12 8.7 4.0
2020-Jan-19 10:51 270 12 8.7 3.9
2020-Jan-19 10:50 270 13 8.7 4.0
2020-Jan-19 10:45 270 12 8.7 4.0
2020-Jan-19 10:40 270 14 8.7 4.0
2020-Jan-19 10:35 270 15 8.7 4.0
2020-Jan-19 10:30 260 15 gusting 20 8.7 4.0
2020-Jan-19 10:25 250 12 8.7 4.0
2020-Jan-19 10:20 250 10 8.7 4.0
2020-Jan-19 10:15 250 10 8.7 4.0
2020-Jan-19 10:10 240 8 8.7 4.0
2020-Jan-19 10:05 250 11 8.7 4.0
2020-Jan-19 10:00 250 10 8.7 3.0
2020-Jan-19 09:55 250 13 8.7 3.0
2020-Jan-19 09:51 260 13 8.7 3.3
2020-Jan-19 09:50 260 12 8.7 3.0
2020-Jan-19 09:45 260 12 8.7 3.0
2020-Jan-19 09:40 260 11 8.7 3.0
2020-Jan-19 09:35 260 12 8.7 3.0
2020-Jan-19 09:30 260 11 8.7 3.0
2020-Jan-19 09:25 250 9 8.7 3.0
2020-Jan-19 09:20 260 12 8.7 3.0
2020-Jan-19 09:15 270 12 gusting 17 8.7 3.0
2020-Jan-19 09:10 260 11 gusting 16 8.7 3.0
2020-Jan-19 09:05 260 11 8.7 3.0
2020-Jan-19 09:00 260 7 8.7 3.0
2020-Jan-19 08:58 250 7 gusting 15 8.7 2.8
2020-Jan-19 08:55 250 8 8.7 3.0
2020-Jan-19 08:51 260 11 8.7 2.8
2020-Jan-19 08:50 260 12 8.7 3.0
2020-Jan-19 08:45 260 13 8.7 3.0
2020-Jan-19 08:40 270 13 8.7 3.0
2020-Jan-19 08:35 260 13 8.7 3.0
2020-Jan-19 08:30 260 8 8.7 3.0
2020-Jan-19 08:25 250 8 8.7 3.0 Light rain.
2020-Jan-19 08:20 260 9 8.7 3.0 Light rain.
2020-Jan-19 08:15 250 8 8.7 3.0 Light rain.
2020-Jan-19 08:10 260 5 8.7 3.0
2020-Jan-19 08:05 250 7 8.7 3.0 Light rain.
2020-Jan-19 08:00 240 8 8.7 3.0 Light rain.
2020-Jan-19 07:55 250 8 8.7 3.0 Light rain.
2020-Jan-19 07:51 240 7 8.7 2.8
2020-Jan-19 07:50 250 9 8.7 3.0
2020-Jan-19 07:45 250 9 8.7 3.0
2020-Jan-19 07:40 250 8 8.7 3.0
2020-Jan-19 07:35 240 10 8.7 3.0
2020-Jan-19 07:30 250 10 8.7 3.0
2020-Jan-19 07:25 250 9 8.7 3.0
2020-Jan-19 07:20 250 14 8.7 3.0
2020-Jan-19 07:15 240 13 8.7 3.0
2020-Jan-19 07:10 240 10 8.7 3.0
2020-Jan-19 07:05 250 10 8.7 3.0
2020-Jan-19 07:00 250 11 8.7 3.0 Light rain.
2020-Jan-19 06:55 250 12 7.8 3.0 Light rain.
2020-Jan-19 06:51 240 11 7.8 2.8 Light rain.
2020-Jan-19 06:50 240 10 7.8 3.0 Light rain.
2020-Jan-19 06:45 230 9 7.8 3.0
2020-Jan-19 06:40 230 7 7.8 3.0
2020-Jan-19 06:35 230 10 8.7 3.0
2020-Jan-19 06:30 230 11 8.7 3.0
2020-Jan-19 06:25 230 10 8.7 3.0
2020-Jan-19 06:20 230 13 8.7 3.0
2020-Jan-19 06:15 230 7 8.7 3.0
2020-Jan-19 06:10 230 7 8.7 2.0
2020-Jan-19 06:05 220 9 8.7 3.0
2020-Jan-19 06:00 220 7 8.7 3.0